Location: Beutels
(47.8767°N, 9.8584°E)
Time: 01:00:05
(UTC+00:00)

Cosmos 2239 Rocket - Pass Details

Date: 19 May 2025
Orbit: 952 x 991 km, 82.9° (Epoch: 15 June)

Event Time Altitude Azimuth Distance (km) Brightness Sun altitude
Rises 21:51:10 0° 349° (N) 3,678 9.0 -19.5°
Reaches altitude 10° 21:53:42 10° 349° (N) 2,721 8.0 -19.6°
Maximum altitude 21:59:55 79° 264° (W) 985 4.5 -20.0°
Enters shadow 22:02:48 34° 183° (S) 1,537 5.0 -20.1°
